^^
Saratoga-Weather Station Historical Data
Daily Summary for August 15, 2020 Units:  Metric    English   Both
Daily Weekly Monthly Yearly Custom
  High: Low: Average:
Temperature: 13.4 °C 7.9 °C 10.5 °C
Dew Point: 8.1 °C 5 °C 6.4 °C
Humidity: 89% 63% 76%
Wind Speed: 14.3km/h 0km/h 3.4km/h
Wind Gust: 19.3km/h - -
Wind- - SSW
Pressure: 1022.7 hPa 1013.9 hPa -
Precipitation: 0.5 mm    
Historical Graphs
 
 
Tabular Data for August 15, 2020
Time Temperature Dew Point Pressure Wind Wind Speed Wind Gust Humidity Rainfall Rate (Hourly) solar
00:03 11.1 °C 6.2 °C 1014.2 hPa SW 13 km/h 14.5 km/h 72% 0.0 mm 0 W/m2
00:08 11.1 °C 6.4 °C 1014.6 hPa West 4.7 km/h 8 km/h 73% 0.0 mm 0 W/m2
00:13 11.1 °C 6.4 °C 1014.6 hPa SW 3.2 km/h 14.5 km/h 73% 0.0 mm 0 W/m2
00:18 11.1 °C 6.2 °C 1014.2 hPa Calm   3.2 km/h 72% 0.0 mm 0 W/m2
00:23 11.1 °C 6.2 °C 1014.2 hPa NNW 3.2 km/h 9.7 km/h 72% 0.0 mm 0 W/m2
00:28 11 °C 6.3 °C 1014.2 hPa Calm   11.3 km/h 73% 0.0 mm 0 W/m2
00:33 10.9 °C 6.3 °C 1014.2 hPa West 3.2 km/h 9.7 km/h 73% 0.0 mm 0 W/m2
00:38 10.8 °C 6.2 °C 1014.2 hPa East 4.7 km/h 12.9 km/h 73% 0.0 mm 0 W/m2
00:43 10.8 °C 6.4 °C 1014.2 hPa SW 3.2 km/h 4.8 km/h 74% 0.0 mm 0 W/m2
00:48 10.7 °C 6.3 °C 1014.2 hPa NNE 1.4 km/h 11.3 km/h 74% 0.0 mm 0 W/m2
00:53 10.7 °C 6.4 °C 1014.2 hPa SW 3.2 km/h 3.2 km/h 75% 0.0 mm 0 W/m2
00:58 10.7 °C 6.4 °C 1014.2 hPa SW 1.4 km/h 9.7 km/h 75% 0.0 mm 0 W/m2
01:04 10.7 °C 6.3 °C 1014.2 hPa NNW 3.2 km/h 3.2 km/h 74% 0.0 mm 0 W/m2
01:09 10.7 °C 6.4 °C 1014.2 hPa Calm   9.7 km/h 75% 0.0 mm 0 W/m2
01:14 10.7 °C 6.4 °C 1014.2 hPa Calm   6.4 km/h 75% 0.0 mm 0 W/m2
01:19 10.6 °C 6.5 °C 1014.2 hPa Calm   9.7 km/h 76% 0.0 mm 0 W/m2
01:24 10.5 °C 6.4 °C 1014.2 hPa NE 3.2 km/h 3.2 km/h 76% 0.0 mm 0 W/m2
01:29 10.4 °C 6.5 °C 1014.2 hPa East 1.4 km/h 9.7 km/h 77% 0.0 mm 0 W/m2
01:34 10.3 °C 6.4 °C 1014.2 hPa ENE 4.7 km/h 6.4 km/h 77% 0.0 mm 0 W/m2
01:39 10.3 °C 6.4 °C 1014.2 hPa East 4.7 km/h 9.7 km/h 77% 0.0 mm 0 W/m2
01:44 10.2 °C 6.3 °C 1014.2 hPa East 1.4 km/h 11.3 km/h 77% 0.0 mm 0 W/m2
01:49 10.2 °C 6.3 °C 1014.2 hPa ENE 3.2 km/h 8 km/h 77% 0.0 mm 0 W/m2
01:54 10.2 °C 6.2 °C 1014.2 hPa ENE 7.9 km/h 9.7 km/h 76% 0.0 mm 0 W/m2
01:59 10.2 °C 6.2 °C 1014.2 hPa NE 4.7 km/h 6.4 km/h 76% 0.0 mm 0 W/m2
02:04 10.1 °C 6.1 °C 1014.2 hPa Calm   1.6 km/h 76% 0.0 mm 0 W/m2
02:09 10.1 °C 6.1 °C 1014.2 hPa Calm   8 km/h 76% 0.0 mm 0 W/m2
02:14 10 °C 6 °C 1013.9 hPa East 7.9 km/h 9.7 km/h 76% 0.0 mm 0 W/m2
02:19 9.9 °C 5.9 °C 1013.9 hPa ENE 6.4 km/h 6.4 km/h 76% 0.0 mm 0 W/m2
02:24 9.9 °C 5.9 °C 1013.9 hPa East 1.4 km/h 3.2 km/h 76% 0.0 mm 0 W/m2
02:29 9.8 °C 5.8 °C 1013.9 hPa East 7.9 km/h 8 km/h 76% 0.0 mm 0 W/m2
02:34 9.7 °C 5.7 °C 1014.2 hPa ENE 7.9 km/h 11.3 km/h 76% 0.0 mm 0 W/m2
02:39 9.6 °C 5.8 °C 1014.2 hPa ESE 4.7 km/h 6.4 km/h 77% 0.0 mm 0 W/m2
02:44 9.5 °C 5.9 °C 1014.2 hPa ESE 4.7 km/h 6.4 km/h 78% 0.0 mm 0 W/m2
02:49 9.4 °C 5.8 °C 1014.2 hPa ENE 3.2 km/h 9.7 km/h 78% 0.0 mm 0 W/m2
02:54 9.3 °C 5.7 °C 1014.2 hPa East 4.7 km/h 11.3 km/h 78% 0.0 mm 0 W/m2
02:59 9.3 °C 5.7 °C 1014.2 hPa ENE 3.2 km/h 4.8 km/h 78% 0.0 mm 0 W/m2
03:04 9.3 °C 5.7 °C 1014.2 hPa ENE 1.4 km/h 4.8 km/h 78% 0.0 mm 0 W/m2
03:09 9.3 °C 5.7 °C 1014.2 hPa East 3.2 km/h 8 km/h 78% 0.0 mm 0 W/m2
03:14 9.3 °C 5.7 °C 1014.2 hPa Calm   6.4 km/h 78% 0.0 mm 0 W/m2
03:19 9.4 °C 5.6 °C 1014.2 hPa ENE 3.2 km/h 8 km/h 77% 0.0 mm 0 W/m2
03:24 9.4 °C 5.6 °C 1014.2 hPa NE 3.2 km/h 9.7 km/h 77% 0.0 mm 0 W/m2
03:29 9.4 °C 5.6 °C 1014.2 hPa ENE 13 km/h 12.9 km/h 77% 0.0 mm 0 W/m2
03:34 9.4 °C 5.6 °C 1014.2 hPa Calm   3.2 km/h 77% 0.0 mm 0 W/m2
03:39 9.3 °C 5.5 °C 1014.2 hPa ENE 3.2 km/h 6.4 km/h 77% 0.0 mm 0 W/m2
03:44 9.3 °C 5.7 °C 1014.2 hPa ENE 1.4 km/h 8 km/h 78% 0.0 mm 0 W/m2
03:49 9.2 °C 5.6 °C 1013.9 hPa Calm   8 km/h 78% 0.0 mm 0 W/m2
03:54 9.2 °C 5.6 °C 1013.9 hPa Calm   3.2 km/h 78% 0.0 mm 0 W/m2
03:59 9.2 °C 5.6 °C 1014.2 hPa North 1.4 km/h 3.2 km/h 78% 0.0 mm 0 W/m2
04:04 9.2 °C 5.6 °C 1014.2 hPa NE 4.7 km/h 4.8 km/h 78% 0.0 mm 0 W/m2
04:09 9.1 °C 5.5 °C 1014.2 hPa NNW 4.7 km/h 6.4 km/h 78% 0.0 mm 0 W/m2
04:14 9.1 °C 5.5 °C 1014.2 hPa North 4.7 km/h 8 km/h 78% 0.0 mm 0 W/m2
04:19 9.1 °C 5.5 °C 1014.2 hPa North 1.4 km/h 9.7 km/h 78% 0.0 mm 0 W/m2
04:24 9.1 °C 5.7 °C 1013.9 hPa North 7.9 km/h 12.9 km/h 79% 0.0 mm 0 W/m2
04:29 9.1 °C 5.7 °C 1013.9 hPa WNW 3.2 km/h 12.9 km/h 79% 0.0 mm 0 W/m2
04:34 9.1 °C 5.7 °C 1013.9 hPa North 4.7 km/h 8 km/h 79% 0.0 mm 0 W/m2
04:40 8.9 °C 5.5 °C 1014.2 hPa Calm   6.4 km/h 79% 0.0 mm 0 W/m2
04:45 8.9 °C 5.5 °C 1014.2 hPa North 3.2 km/h 8 km/h 79% 0.0 mm 0 W/m2
04:50 8.9 °C 5.5 °C 1014.2 hPa NNE 3.2 km/h 8 km/h 79% 0.0 mm 0 W/m2
04:55 8.8 °C 5.4 °C 1014.2 hPa NW 6.4 km/h 8 km/h 79% 0.0 mm 0 W/m2
05:00 8.8 °C 5.4 °C 1014.2 hPa NW 1.4 km/h 8 km/h 79% 0.0 mm 0 W/m2
05:05 8.7 °C 5.4 °C 1014.2 hPa NNE 6.4 km/h 8 km/h 80% 0.0 mm 0 W/m2
05:10 8.7 °C 5.4 °C 1014.2 hPa NNW 3.2 km/h 12.9 km/h 80% 0.0 mm 0 W/m2
05:15 8.6 °C 5.3 °C 1014.2 hPa NE 3.2 km/h 8 km/h 80% 0.0 mm 0 W/m2
05:20 8.5 °C 5.2 °C 1014.2 hPa North 13 km/h 12.9 km/h 80% 0.0 mm 0 W/m2
05:25 8.4 °C 5.3 °C 1014.2 hPa North 3.2 km/h 8 km/h 81% 0.0 mm 0 W/m2
05:30 8.4 °C 5.3 °C 1014.2 hPa SW 6.4 km/h 6.4 km/h 81% 0.0 mm 0 W/m2
05:35 8.4 °C 5.3 °C 1014.2 hPa NNE 3.2 km/h 9.7 km/h 81% 0.0 mm 0 W/m2
05:40 8.4 °C 5.3 °C 1014.2 hPa Calm   11.3 km/h 81% 0.0 mm 0 W/m2
05:45 8.3 °C 5.2 °C 1014.2 hPa NE 1.4 km/h 8 km/h 81% 0.0 mm 0 W/m2
05:50 8.3 °C 5.2 °C 1014.2 hPa NW 4.7 km/h 6.4 km/h 81% 0.0 mm 0 W/m2
05:55 8.2 °C 5.1 °C 1014.2 hPa NNW 7.9 km/h 8 km/h 81% 0.0 mm 0 W/m2
06:00 8.2 °C 5.1 °C 1014.2 hPa ENE 13 km/h 12.9 km/h 81% 0.0 mm 0 W/m2
06:05 8.3 °C 5.2 °C 1014.2 hPa North 6.4 km/h 8 km/h 81% 0.0 mm 0 W/m2
06:10 8.3 °C 5.2 °C 1014.2 hPa Calm   8 km/h 81% 0.0 mm 0 W/m2
06:15 8.3 °C 5.2 °C 1014.6 hPa Calm   11.3 km/h 81% 0.0 mm 0 W/m2
06:20 8.3 °C 5.2 °C 1014.6 hPa NNE 6.4 km/h 9.7 km/h 81% 0.0 mm 0 W/m2
06:25 8.3 °C 5.2 °C 1014.6 hPa NNW 7.9 km/h 12.9 km/h 81% 0.0 mm 0 W/m2
06:30 8.4 °C 5.2 °C 1014.6 hPa NNW 6.4 km/h 9.7 km/h 80% 0.0 mm 0 W/m2
06:35 8.4 °C 5.2 °C 1014.6 hPa NW 7.9 km/h 8 km/h 80% 0.0 mm 0 W/m2
06:40 8.4 °C 5.2 °C 1014.6 hPa North 4.7 km/h 6.4 km/h 80% 0.0 mm 0 W/m2
06:45 8.3 °C 5.1 °C 1014.6 hPa North 6.4 km/h 8 km/h 80% 0.0 mm 0 W/m2
06:50 8.2 °C 5.1 °C 1014.6 hPa North 4.7 km/h 9.7 km/h 81% 0.0 mm 0 W/m2
06:55 8.1 °C 5 °C 1014.6 hPa Calm   8 km/h 81% 0.0 mm 0 W/m2
07:00 8.1 °C 5 °C 1014.6 hPa NNE 1.4 km/h 9.7 km/h 81% 0.0 mm 0 W/m2
07:05 8.1 °C 5 °C 1014.6 hPa NE 6.4 km/h 14.5 km/h 81% 0.0 mm 0 W/m2
07:10 8.1 °C 5.2 °C 1014.6 hPa South 3.2 km/h 8 km/h 82% 0.0 mm 0 W/m2
07:15 8.1 °C 5 °C 1014.6 hPa NE 4.7 km/h 6.4 km/h 81% 0.0 mm 0 W/m2
07:20 8.1 °C 5 °C 1014.6 hPa NE 7.9 km/h 9.7 km/h 81% 0.0 mm 0 W/m2
07:25 8.1 °C 5 °C 1014.6 hPa NNE 3.2 km/h 8 km/h 81% 0.0 mm 0 W/m2
07:30 8.1 °C 5 °C 1014.6 hPa NNW 6.4 km/h 9.7 km/h 81% 0.0 mm 0 W/m2
07:35 8 °C 5.1 °C 1014.6 hPa ENE 4.7 km/h 8 km/h 82% 0.0 mm 0 W/m2
07:40 8 °C 5.1 °C 1014.6 hPa ENE 1.4 km/h 9.7 km/h 82% 0.0 mm 0 W/m2
07:45 8 °C 5.1 °C 1014.6 hPa NNE 9.7 km/h 12.9 km/h 82% 0.0 mm 0 W/m2
07:50 7.9 °C 5 °C 1014.9 hPa NNE 7.9 km/h 11.3 km/h 82% 0.0 mm 0 W/m2
07:55 7.9 °C 5 °C 1014.6 hPa North 4.7 km/h 12.9 km/h 82% 0.0 mm 0 W/m2
08:00 7.9 °C 5 °C 1014.6 hPa North 4.7 km/h 11.3 km/h 82% 0.0 mm 0 W/m2
08:05 8 °C 5.1 °C 1014.9 hPa North 3.2 km/h 3.2 km/h 82% 0.0 mm 0 W/m2
08:10 8.1 °C 5.2 °C 1014.9 hPa NNE 7.9 km/h 11.3 km/h 82% 0.0 mm 0 W/m2
08:15 8.1 °C 5.2 °C 1014.9 hPa NW 1.4 km/h 8 km/h 82% 0.0 mm 0 W/m2
08:20 8 °C 5.1 °C 1014.9 hPa North 3.2 km/h 6.4 km/h 82% 0.0 mm 0 W/m2
08:25 8.1 °C 5.2 °C 1014.9 hPa NW 3.2 km/h 11.3 km/h 82% 0.0 mm 5 W/m2
08:30 8.1 °C 5 °C 1014.9 hPa NE 1.4 km/h 11.3 km/h 81% 0.0 mm 5 W/m2
08:35 8.1 °C 5 °C 1014.9 hPa Calm   4.8 km/h 81% 0.0 mm 7 W/m2
08:40 8.2 °C 5.1 °C 1014.9 hPa NNW 1.4 km/h 12.9 km/h 81% 0.0 mm 11 W/m2
08:45 8.2 °C 5.1 °C 1014.9 hPa ENE 1.4 km/h 14.5 km/h 81% 0.0 mm 14 W/m2
08:50 8.2 °C 5.1 °C 1014.9 hPa NW 3.2 km/h 3.2 km/h 81% 0.0 mm 16 W/m2
08:55 8.1 °C 5 °C 1014.9 hPa NNW 4.7 km/h 12.9 km/h 81% 0.0 mm 16 W/m2
09:00 8.1 °C 5 °C 1015.2 hPa Calm   8 km/h 81% 0.0 mm 16 W/m2
09:05 8.1 °C 5 °C 1014.9 hPa NNW 4.7 km/h 4.8 km/h 81% 0.0 mm 19 W/m2
09:10 8.2 °C 5.1 °C 1014.9 hPa NE 1.4 km/h 11.3 km/h 81% 0.0 mm 23 W/m2
09:15 8.2 °C 5.1 °C 1014.9 hPa NE 1.4 km/h 9.7 km/h 81% 0.0 mm 28 W/m2
09:20 8.3 °C 5.2 °C 1014.9 hPa NNW 3.2 km/h 12.9 km/h 81% 0.0 mm 39 W/m2
09:25 8.4 °C 5.2 °C 1014.9 hPa West 4.7 km/h 11.3 km/h 80% 0.0 mm 47 W/m2
09:30 8.6 °C 5.3 °C 1014.9 hPa Calm   6.4 km/h 80% 0.0 mm 51 W/m2
09:35 8.7 °C 5.4 °C 1014.9 hPa ENE 6.4 km/h 9.7 km/h 80% 0.0 mm 58 W/m2
09:40 8.8 °C 5.4 °C 1015.2 hPa North 6.4 km/h 6.4 km/h 79% 0.0 mm 65 W/m2
09:45 8.8 °C 5.4 °C 1015.2 hPa North 1.4 km/h 16.1 km/h 79% 0.0 mm 63 W/m2
09:51 8.9 °C 5.3 °C 1014.9 hPa SSW 4.7 km/h 16.1 km/h 78% 0.0 mm 58 W/m2
09:56 8.9 °C 5.3 °C 1015.2 hPa SW 1.4 km/h 11.3 km/h 78% 0.0 mm 54 W/m2
10:01 9.1 °C 5.5 °C 1015.2 hPa SSW 1.4 km/h 16.1 km/h 78% 0.0 mm 63 W/m2
10:06 9.1 °C 5.5 °C 1015.2 hPa North 3.2 km/h 9.7 km/h 78% 0.0 mm 70 W/m2
10:11 9.1 °C 5.5 °C 1014.9 hPa NNW 6.4 km/h 12.9 km/h 78% 0.0 mm 72 W/m2
10:16 9.2 °C 5.6 °C 1015.2 hPa Calm   6.4 km/h 78% 0.0 mm 76 W/m2
10:21 9.2 °C 5.4 °C 1015.2 hPa Calm   16.1 km/h 77% 0.0 mm 81 W/m2
10:26 9.3 °C 5.5 °C 1015.2 hPa WNW 6.4 km/h 6.4 km/h 77% 0.0 mm 72 W/m2
10:31 9.4 °C 5.6 °C 1015.2 hPa WNW 3.2 km/h 6.4 km/h 77% 0.0 mm 72 W/m2
10:36 9.5 °C 5.7 °C 1015.2 hPa WNW 4.7 km/h 11.3 km/h 77% 0.0 mm 72 W/m2
10:41 9.6 °C 5.8 °C 1015.2 hPa WNW 3.2 km/h 12.9 km/h 77% 0.0 mm 77 W/m2
10:46 9.7 °C 5.7 °C 1015.2 hPa WSW 3.2 km/h 16.1 km/h 76% 0.0 mm 84 W/m2
10:51 9.8 °C 5.8 °C 1015.6 hPa SSW 9.7 km/h 14.5 km/h 76% 0.0 mm 74 W/m2
10:56 9.9 °C 5.9 °C 1015.6 hPa WNW 4.7 km/h 17.7 km/h 76% 0.0 mm 62 W/m2
11:01 9.9 °C 5.7 °C 1015.6 hPa Calm   19.3 km/h 75% 0.0 mm 56 W/m2
11:07 10 °C 5.8 °C 1015.6 hPa NNE 4.7 km/h 4.8 km/h 75% 0.0 mm 46 W/m2
11:12 10.1 °C 5.9 °C 1015.6 hPa WNW 3.2 km/h 12.9 km/h 75% 0.0 mm 40 W/m2
11:17 10.2 °C 6 °C 1015.6 hPa SSW 9.7 km/h 12.9 km/h 75% 0.0 mm 39 W/m2
11:22 10.2 °C 5.8 °C 1015.6 hPa NW 3.2 km/h 17.7 km/h 74% 0.0 mm 39 W/m2
11:27 10.3 °C 5.9 °C 1015.2 hPa NE 6.4 km/h 11.3 km/h 74% 0.0 mm 46 W/m2
11:32 10.4 °C 6 °C 1015.6 hPa WNW 6.4 km/h 16.1 km/h 74% 0.0 mm 39 W/m2
11:37 10.6 °C 6.2 °C 1015.2 hPa WNW 3.2 km/h 8 km/h 74% 0.0 mm 46 W/m2
11:42 10.7 °C 6.1 °C 1015.2 hPa East 4.7 km/h 4.8 km/h 73% 0.0 mm 81 W/m2
11:47 10.8 °C 6.2 °C 1015.2 hPa WNW 6.4 km/h 12.9 km/h 73% 0.0 mm 91 W/m2
11:52 11 °C 6.3 °C 1015.6 hPa SSW 9.7 km/h 14.5 km/h 73% 0.0 mm 56 W/m2
11:57 11.1 °C 6.2 °C 1015.2 hPa NW 6.4 km/h 8 km/h 72% 0.0 mm 42 W/m2
12:02 11.2 °C 6.3 °C 1015.2 hPa WSW 1.4 km/h 11.3 km/h 72% 0.0 mm 40 W/m2
12:07 11.3 °C 6.2 °C 1015.2 hPa WSW 6.4 km/h 9.7 km/h 71% 0.0 mm 35 W/m2
12:12 11.3 °C 6.2 °C 1015.2 hPa SE 3.2 km/h 12.9 km/h 71% 0.0 mm 35 W/m2
12:17 11.4 °C 6.3 °C 1015.2 hPa Calm   11.3 km/h 71% 0.0 mm 39 W/m2
12:22 11.4 °C 6.3 °C 1015.2 hPa ESE 6.4 km/h 14.5 km/h 71% 0.0 mm 40 W/m2
12:27 11.6 °C 6.5 °C 1015.2 hPa SW 1.4 km/h 8 km/h 71% 0.0 mm 39 W/m2
12:32 11.7 °C 6.4 °C 1015.2 hPa NNE 9.7 km/h 9.7 km/h 70% 0.0 mm 39 W/m2
12:37 11.7 °C 6.4 °C 1015.2 hPa West 4.7 km/h 4.8 km/h 70% 0.0 mm 39 W/m2
12:43 11.8 °C 6.5 °C 1015.2 hPa WSW 1.4 km/h 11.3 km/h 70% 0.0 mm 39 W/m2
12:48 11.8 °C 6.5 °C 1015.2 hPa NNW 1.4 km/h 19.3 km/h 70% 0.0 mm 40 W/m2
12:53 11.9 °C 6.4 °C 1015.2 hPa WNW 1.4 km/h 9.7 km/h 69% 0.0 mm 37 W/m2
12:58 12 °C 6.5 °C 1015.2 hPa West 6.4 km/h 6.4 km/h 69% 0.0 mm 39 W/m2
13:03 12.1 °C 6.6 °C 1015.2 hPa Calm   8 km/h 69% 0.0 mm 42 W/m2
13:08 12.2 °C 6.5 °C 1014.9 hPa Calm   12.9 km/h 68% 0.0 mm 35 W/m2
13:13 12.2 °C 6.5 °C 1015.2 hPa NNW 1.4 km/h 17.7 km/h 68% 0.0 mm 33 W/m2
13:18 12.3 °C 6.6 °C 1015.2 hPa NE 4.7 km/h 16.1 km/h 68% 0.0 mm 37 W/m2
13:23 12.4 °C 6.7 °C 1015.2 hPa North 7.9 km/h 17.7 km/h 68% 0.0 mm 33 W/m2
13:28 12.4 °C 6.4 °C 1015.2 hPa ESE 4.7 km/h 8 km/h 67% 0.0 mm 35 W/m2
13:33 12.5 °C 6.5 °C 1014.9 hPa Calm   8 km/h 67% 0.0 mm 42 W/m2
13:38 12.6 °C 6.6 °C 1014.9 hPa NNE 4.7 km/h 8 km/h 67% 0.0 mm 37 W/m2
13:43 12.6 °C 6.4 °C 1014.9 hPa WNW 4.7 km/h 19.3 km/h 66% 0.0 mm 35 W/m2
13:48 12.6 °C 6.6 °C 1014.9 hPa NNW 9.7 km/h 9.7 km/h 67% 0.0 mm 37 W/m2
13:53 12.7 °C 6.7 °C 1014.9 hPa NNE 1.4 km/h 17.7 km/h 67% 0.0 mm 37 W/m2
13:58 12.7 °C 6.7 °C 1014.9 hPa NNW 4.7 km/h 6.4 km/h 67% 0.0 mm 47 W/m2
14:03 12.8 °C 6.6 °C 1014.9 hPa NW 4.7 km/h 19.3 km/h 66% 0.0 mm 39 W/m2
14:08 12.8 °C 6.6 °C 1014.9 hPa WSW 3.2 km/h 11.3 km/h 66% 0.0 mm 37 W/m2
14:13 12.8 °C 6.6 °C 1014.9 hPa West 4.7 km/h 19.3 km/h 66% 0.0 mm 39 W/m2
14:18 12.9 °C 6.7 °C 1014.9 hPa NW 3.2 km/h 14.5 km/h 66% 0.0 mm 39 W/m2
14:23 12.9 °C 6.7 °C 1014.9 hPa West 1.4 km/h 17.7 km/h 66% 0.0 mm 42 W/m2
14:29 13 °C 6.6 °C 1014.9 hPa WNW 6.4 km/h 19.3 km/h 65% 0.0 mm 37 W/m2
14:34 13 °C 6.8 °C 1014.9 hPa WNW 7.9 km/h 12.9 km/h 66% 0.0 mm 32 W/m2
14:39 13.1 °C 6.9 °C 1014.9 hPa SSW 3.2 km/h 16.1 km/h 66% 0.0 mm 30 W/m2
14:44 13.1 °C 6.9 °C 1015.2 hPa NW 3.2 km/h 6.4 km/h 66% 0.0 mm 35 W/m2
14:49 13.1 °C 6.9 °C 1015.2 hPa WNW 3.2 km/h 6.4 km/h 66% 0.0 mm 54 W/m2
14:54 13.1 °C 6.9 °C 1015.2 hPa WSW 6.4 km/h 9.7 km/h 66% 0.0 mm 69 W/m2
14:59 13.1 °C 6.9 °C 1015.2 hPa South 7.9 km/h 11.3 km/h 66% 0.0 mm 67 W/m2
15:04 13.1 °C 6.7 °C 1015.2 hPa Calm   4.8 km/h 65% 0.0 mm 54 W/m2
15:09 13.2 °C 6.8 °C 1015.2 hPa SW 4.7 km/h 6.4 km/h 65% 0.0 mm 46 W/m2
15:14 13.1 °C 6.7 °C 1015.2 hPa Calm   4.8 km/h 65% 0.0 mm 49 W/m2
15:19 13.1 °C 6.9 °C 1015.6 hPa SSE 9.7 km/h 17.7 km/h 66% 0.0 mm 60 W/m2
15:24 13.1 °C 6.9 °C 1015.6 hPa North 3.2 km/h 3.2 km/h 66% 0.0 mm 47 W/m2
15:29 13.1 °C 6.9 °C 1015.6 hPa WNW 4.7 km/h 6.4 km/h 66% 0.0 mm 35 W/m2
15:34 13.2 °C 6.8 °C 1015.6 hPa Calm   3.2 km/h 65% 0.0 mm 42 W/m2
15:39 13.2 °C 6.8 °C 1015.6 hPa WNW 7.9 km/h 8 km/h 65% 0.0 mm 37 W/m2
15:44 13.2 °C 6.8 °C 1015.6 hPa WNW 1.4 km/h 6.4 km/h 65% 0.0 mm 30 W/m2
15:49 13.2 °C 6.8 °C 1015.6 hPa North 11.3 km/h 11.3 km/h 65% 0.0 mm 32 W/m2
15:54 13.2 °C 6.8 °C 1015.6 hPa NW 3.2 km/h 4.8 km/h 65% 0.0 mm 42 W/m2
15:59 13.2 °C 6.8 °C 1015.6 hPa WNW 3.2 km/h 4.8 km/h 65% 0.0 mm 44 W/m2
16:04 13.2 °C 6.5 °C 1015.9 hPa WSW 6.4 km/h 16.1 km/h 64% 0.0 mm 37 W/m2
16:09 13.3 °C 6.6 °C 1015.9 hPa Calm   4.8 km/h 64% 0.0 mm 32 W/m2
16:14 13.4 °C 6.5 °C 1015.9 hPa Calm   11.3 km/h 63% 0.0 mm 32 W/m2
16:19 13.4 °C 6.5 °C 1015.9 hPa NNE 4.7 km/h 4.8 km/h 63% 0.0 mm 23 W/m2
16:24 13.4 °C 6.5 °C 1016.3 hPa NW 4.7 km/h 14.5 km/h 63% 0.0 mm 18 W/m2
16:29 13.3 °C 6.6 °C 1016.3 hPa NW 4.7 km/h 9.7 km/h 64% 0.0 mm 12 W/m2
16:34 13.2 °C 6.8 °C 1016.3 hPa NNE 3.2 km/h 14.5 km/h 65% 0.0 mm 14 W/m2
16:40 13.2 °C 6.8 °C 1016.3 hPa North 4.7 km/h 6.4 km/h 65% 0.0 mm 11 W/m2
16:45 13.1 °C 6.7 °C 1016.3 hPa North 3.2 km/h 14.5 km/h 65% 0.0 mm 11 W/m2
16:50 13.1 °C 6.9 °C 1016.3 hPa NNE 1.4 km/h 8 km/h 66% 0.0 mm 9 W/m2
16:55 13 °C 6.8 °C 1016.3 hPa WSW 1.4 km/h 14.5 km/h 66% 0.0 mm 5 W/m2
17:00 13 °C 6.6 °C 1016.3 hPa Calm   8 km/h 65% 0.0 mm 0 W/m2
17:05 12.9 °C 6.7 °C 1016.6 hPa North 6.4 km/h 6.4 km/h 66% 0.0 mm 0 W/m2
17:10 12.9 °C 6.7 °C 1016.6 hPa NE 3.2 km/h 12.9 km/h 66% 0.0 mm 0 W/m2
17:15 12.8 °C 6.6 °C 1016.6 hPa NNW 3.2 km/h 6.4 km/h 66% 0.0 mm 0 W/m2
17:20 12.9 °C 6.5 °C 1016.9 hPa WNW 4.7 km/h 12.9 km/h 65% 0.0 mm 0 W/m2
17:25 12.9 °C 6.5 °C 1016.9 hPa WNW 3.2 km/h 6.4 km/h 65% 0.0 mm 0 W/m2
17:30 12.9 °C 6.5 °C 1016.9 hPa NW 3.2 km/h 4.8 km/h 65% 0.0 mm 0 W/m2
17:35 12.9 °C 6.5 °C 1016.9 hPa West 14.3 km/h 14.5 km/h 65% 0.0 mm 0 W/m2
17:40 12.9 °C 6.7 °C 1016.9 hPa WNW 6.4 km/h 11.3 km/h 66% 0.0 mm 0 W/m2
17:45 12.7 °C 6.7 °C 1017.3 hPa West 3.2 km/h 6.4 km/h 67% 0.0 mm 0 W/m2
17:50 12.7 °C 6.7 °C 1017.3 hPa SSW 1.4 km/h 17.7 km/h 67% 0.0 mm 0 W/m2
17:55 12.6 °C 6.8 °C 1017.3 hPa WNW 3.2 km/h 6.4 km/h 68% 0.0 mm 0 W/m2
18:00 12.4 °C 6.7 °C 1017.3 hPa ENE 3.2 km/h 17.7 km/h 68% 0.0 mm 0 W/m2
18:05 12.4 °C 6.7 °C 1017.3 hPa Calm   11.3 km/h 68% 0.0 mm 0 W/m2
18:10 12.4 °C 6.9 °C 1017.6 hPa NE 6.4 km/h 16.1 km/h 69% 0.0 mm 0 W/m2
18:15 12.4 °C 6.7 °C 1017.6 hPa NW 3.2 km/h 9.7 km/h 68% 0.0 mm 0 W/m2
18:20 12.4 °C 6.7 °C 1017.6 hPa SSW 1.4 km/h 4.8 km/h 68% 0.0 mm 0 W/m2
18:25 12.4 °C 6.9 °C 1017.6 hPa West 6.4 km/h 17.7 km/h 69% 0.0 mm 0 W/m2
18:30 12.4 °C 6.7 °C 1017.6 hPa WNW 3.2 km/h 6.4 km/h 68% 0.0 mm 0 W/m2
18:35 12.4 °C 6.9 °C 1018.0 hPa West 3.2 km/h 16.1 km/h 69% 0.0 mm 0 W/m2
18:40 12.4 °C 6.9 °C 1018.0 hPa NNW 1.4 km/h 6.4 km/h 69% 0.0 mm 0 W/m2
18:45 12.4 °C 6.9 °C 1018.0 hPa WSW 3.2 km/h 16.1 km/h 69% 0.0 mm 0 W/m2
18:50 12.4 °C 7.1 °C 1018.0 hPa NW 7.9 km/h 12.9 km/h 70% 0.0 mm 0 W/m2
18:55 12.4 °C 6.9 °C 1018.0 hPa West 4.7 km/h 16.1 km/h 69% 0.0 mm 0 W/m2
19:00 12.4 °C 7.1 °C 1018.3 hPa SW 6.4 km/h 12.9 km/h 70% 0.0 mm 0 W/m2
19:05 12.4 °C 7.1 °C 1018.3 hPa NW 4.7 km/h 14.5 km/h 70% 0.0 mm 0 W/m2
19:10 12.3 °C 7.2 °C 1018.6 hPa WSW 6.4 km/h 9.7 km/h 71% 0.0 mm 0 W/m2
19:15 12.3 °C 7.4 °C 1019.0 hPa West 1.4 km/h 14.5 km/h 72% 0.0 mm 0 W/m2
19:20 12.1 °C 7.4 °C 1019.0 hPa West 1.4 km/h 6.4 km/h 73% 0.0 mm 0 W/m2
19:25 11.9 °C 7.4 °C 1019.0 hPa WSW 3.2 km/h 9.7 km/h 74% 0.0 mm 0 W/m2
19:30 11.8 °C 7.5 °C 1019.0 hPa SSW 6.4 km/h 12.9 km/h 75% 0.2 mm 0 W/m2
19:35 11.6 °C 7.7 °C 1019.0 hPa NW 6.4 km/h 8 km/h 77% 0.2 mm 0 W/m2
19:40 11.4 °C 7.7 °C 1019.3 hPa West 1.4 km/h 12.9 km/h 78% 0.2 mm 0 W/m2
19:45 11.3 °C 8 °C 1019.3 hPa WNW 3.2 km/h 6.4 km/h 80% 0.5 mm 0 W/m2
19:50 11.1 °C 8 °C 1019.3 hPa WNW 3.2 km/h 4.8 km/h 81% 0.5 mm 0 W/m2
19:55 10.9 °C 7.9 °C 1019.3 hPa Calm   3.2 km/h 82% 0.5 mm 0 W/m2
20:00 10.8 °C 8 °C 1019.3 hPa Calm   4.8 km/h 83% 0.5 mm 0 W/m2
20:05 10.7 °C 7.9 °C 1019.3 hPa Calm   3.2 km/h 83% 0.5 mm 0 W/m2
20:10 10.6 °C 8 °C 1019.3 hPa Calm   3.2 km/h 84% 0.5 mm 0 W/m2
20:15 10.5 °C 8.1 °C 1019.6 hPa WNW 3.2 km/h 6.4 km/h 85% 0.5 mm 0 W/m2
20:20 10.4 °C 8 °C 1019.6 hPa SW 1.4 km/h 4.8 km/h 85% 0.5 mm 0 W/m2
20:25 10.4 °C 8 °C 1019.6 hPa Calm   1.6 km/h 85% 0.5 mm 0 W/m2
20:30 10.3 °C 7.9 °C 1020.0 hPa WNW 1.4 km/h 1.6 km/h 85% 0.5 mm 0 W/m2
20:36 10.3 °C 7.9 °C 1020.0 hPa NW 3.2 km/h 6.4 km/h 85% 0.5 mm 0 W/m2
20:41 10.4 °C 8 °C 1020.0 hPa Calm   6.4 km/h 85% 0.5 mm 0 W/m2
20:46 10.6 °C 7.8 °C 1020.3 hPa SE 3.2 km/h 6.4 km/h 83% 0.2 mm 0 W/m2
20:51 10.8 °C 8 °C 1020.3 hPa WSW 3.2 km/h 4.8 km/h 83% 0.2 mm 0 W/m2
20:56 10.9 °C 7.9 °C 1020.3 hPa Calm   8 km/h 82% 0.2 mm 0 W/m2
21:01 11 °C 8 °C 1020.3 hPa West 1.4 km/h 16.1 km/h 82% 0.2 mm 0 W/m2
21:06 11 °C 8 °C 1020.3 hPa Calm   6.4 km/h 82% 0.0 mm 0 W/m2
21:11 11 °C 7.9 °C 1020.3 hPa Calm   6.4 km/h 81% 0.0 mm 0 W/m2
21:16 11 °C 7.9 °C 1020.3 hPa Calm   3.2 km/h 81% 0.0 mm 0 W/m2
21:21 11 °C 7.9 °C 1020.3 hPa ESE 1.4 km/h 9.7 km/h 81% 0.0 mm 0 W/m2
21:26 10.9 °C 7.8 °C 1020.7 hPa Calm   4.8 km/h 81% 0.0 mm 0 W/m2
21:31 10.9 °C 7.8 °C 1020.7 hPa Calm   4.8 km/h 81% 0.0 mm 0 W/m2
21:36 10.8 °C 7.9 °C 1020.7 hPa ENE 3.2 km/h 3.2 km/h 82% 0.0 mm 0 W/m2
21:41 10.6 °C 7.8 °C 1020.7 hPa Calm   6.4 km/h 83% 0.0 mm 0 W/m2
21:46 10.4 °C 7.8 °C 1020.7 hPa Calm     84% 0.0 mm 0 W/m2
21:51 10.3 °C 7.7 °C 1021.0 hPa Calm   6.4 km/h 84% 0.0 mm 0 W/m2
21:56 10.2 °C 7.8 °C 1021.0 hPa South 1.4 km/h 1.6 km/h 85% 0.0 mm 0 W/m2
22:01 10 °C 7.8 °C 1021.0 hPa Calm   4.8 km/h 86% 0.0 mm 0 W/m2
22:06 9.9 °C 7.7 °C 1021.0 hPa Calm     86% 0.0 mm 0 W/m2
22:11 9.8 °C 7.6 °C 1021.0 hPa Calm     86% 0.0 mm 0 W/m2
22:16 9.8 °C 7.7 °C 1021.0 hPa Calm   3.2 km/h 87% 0.0 mm 0 W/m2
22:21 9.7 °C 7.6 °C 1021.3 hPa SW 1.4 km/h 4.8 km/h 87% 0.0 mm 0 W/m2
22:26 9.8 °C 7.7 °C 1021.3 hPa ENE 4.7 km/h 4.8 km/h 87% 0.0 mm 0 W/m2
22:31 9.7 °C 7.6 °C 1021.3 hPa Calm   1.6 km/h 87% 0.0 mm 0 W/m2
22:36 9.7 °C 7.8 °C 1021.3 hPa Calm   3.2 km/h 88% 0.0 mm 0 W/m2
22:41 9.6 °C 7.7 °C 1021.3 hPa Calm   1.6 km/h 88% 0.0 mm 0 W/m2
22:46 9.6 °C 7.7 °C 1021.7 hPa Calm     88% 0.0 mm 0 W/m2
22:51 9.6 °C 7.9 °C 1021.7 hPa ESE 1.4 km/h 3.2 km/h 89% 0.0 mm 0 W/m2
22:56 9.6 °C 7.7 °C 1021.7 hPa Calm   1.6 km/h 88% 0.0 mm 0 W/m2
23:01 9.6 °C 7.9 °C 1021.7 hPa Calm   1.6 km/h 89% 0.0 mm 0 W/m2
23:06 9.6 °C 7.9 °C 1021.7 hPa Calm     89% 0.0 mm 0 W/m2
23:11 9.6 °C 7.9 °C 1021.7 hPa Calm     89% 0.0 mm 0 W/m2
23:16 9.6 °C 7.9 °C 1022.0 hPa Calm   1.6 km/h 89% 0.0 mm 0 W/m2
23:21 9.5 °C 7.8 °C 1022.0 hPa Calm     89% 0.0 mm 0 W/m2
23:26 9.6 °C 7.9 °C 1022.0 hPa Calm   1.6 km/h 89% 0.0 mm 0 W/m2
23:31 9.6 °C 7.7 °C 1022.4 hPa West 1.4 km/h 3.2 km/h 88% 0.0 mm 0 W/m2
23:36 9.7 °C 7.8 °C 1022.4 hPa West 1.4 km/h 1.6 km/h 88% 0.0 mm 0 W/m2
23:41 9.8 °C 7.7 °C 1022.4 hPa West 3.2 km/h 4.8 km/h 87% 0.0 mm 0 W/m2
23:46 10.1 °C 7.9 °C 1022.4 hPa Calm   3.2 km/h 86% 0.0 mm 0 W/m2
23:52 10.3 °C 7.9 °C 1022.7 hPa Calm   9.7 km/h 85% 0.0 mm 0 W/m2
23:57 10.4 °C 7.8 °C 1022.7 hPa Calm   1.6 km/h 84% 0.0 mm 0 W/m2
Juneau County Weather
Compliments of Weather Underground - 4 mb